Location: Drocourt
(49.0571°N, 1.7669°E)
Time: 15:47:28
(UTC+00:00)

Vanguard 1 Rocket - Pass Details

Date: 15 April 2024
Orbit: 651 x 4220 km, 34.3° (Epoch: 19 May)

Event Time Altitude Azimuth Distance (km) Brightness Sun altitude
Rises 23:35:28 0° 261° (W) 4,579 11.0 -31.0°
Reaches altitude 10° 23:38:17 10° 252° (WSW) 3,961 10.5 -31.0°
Enters shadow 23:41:48 23° 236° (SW) 3,448 10.0 -31.0°
Exits shadow 00:04:11 11° 136° (SE) 6,559 11.4 -31.0°
Drops below altitude 10° 00:04:52 10° 135° (SE) 6,708 11.4 -31.0°
Sets 00:11:37 0° 129° (SE) 8,126 12.0 -30.9°
